Lapse_Rate
5.5 5.8 5.9 6.1 6.3 6.3 6.5 6.7 6.8 7.0 7.1 7.1 7.1 7.1 7.3 7.3 7.3 7.2 7.2 6.9 6.7 6.9 6.9 7.0 6.8 6.9 7.0 6.4 6.8 6.8 7.5 7.3 7.9 7.9 7.3 7.0 7.0 6.5 6.2 6.1 5.9 5.6 5.9 5.5 6.1
5.4 5.6 5.8 5.9 6.0 6.2 6.3 6.4 6.7 6.9 7.0 7.0 7.0 6.9 7.0 7.4 7.3 7.2 7.2 7.1 7.0 7.1 7.2 7.3 6.9 7.2 6.1 6.4 7.0 6.8 6.9 8.3 8.4 7.6 7.5 7.3 7.0 6.6 6.5 6.2 5.9 5.9 5.5 6.1 6.2
5.3 5.4 5.6 5.8 5.8 5.9 6.1 6.4 6.5 6.7 6.8 6.9 7.0 6.8 7.0 7.2 7.2 7.1 7.3 7.1 7.1 7.0 7.3 7.2 7.3 7.0 6.9 7.4 7.2 7.0 8.3 8.1 7.9 7.8 7.5 7.3 7.2 6.9 6.8 6.6 6.1 5.8 6.1 6.2 6.1
5.2 5.3 5.4 5.6 5.8 5.8 5.9 6.0 6.4 6.6 6.7 6.8 6.9 6.7 6.8 7.1 7.3 7.0 7.2 7.2 7.2 7.1 7.1 7.1 6.8 7.2 8.4 7.8 7.8 8.1 7.8 8.2 7.8 7.5 7.5 7.4 7.2 7.1 7.1 6.9 6.4 5.8 6.2 6.2 5.4
5.1 5.2 5.3 5.5 5.7 5.8 5.8 5.9 6.1 6.4 6.5 6.7 6.8 6.7 6.7 6.9 6.8 7.0 7.1 7.1 7.0 7.2 7.0 6.4 6.9 7.8 9.1 9.0 8.1 8.0 8.1 7.9 7.5 7.5 7.6 7.4 7.3 7.1 7.0 6.6 6.3 5.8 5.9 5.5 5.4
5.0 5.1 5.2 5.4 5.7 5.9 5.8 5.8 5.9 6.1 6.4 6.5 6.7 6.6 6.7 6.8 6.9 6.8 7.0 7.2 7.0 7.2 6.4 6.5 7.0 7.1 7.7 8.3 7.8 7.6 8.4 8.0 7.8 7.4 7.5 7.7 7.3 7.2 6.9 6.5 6.0 5.9 5.7 5.5 5.6
5.0 5.1 5.2 5.3 5.5 5.7 5.8 5.8 5.8 5.9 6.1 6.4 6.5 6.4 6.6 6.5 6.8 6.8 6.8 7.0 7.3 7.0 6.9 6.9 6.9 7.1 7.6 9.1 7.9 8.1 9.1 8.8 8.2 7.9 7.7 7.9 7.6 7.4 7.0 6.7 6.1 5.9 5.8 5.6 5.6
4.9 5.0 5.1 5.3 5.4 5.5 5.7 5.8 5.8 5.8 5.9 6.0 6.3 6.3 6.3 6.4 6.6 6.9 6.9 7.0 7.0 7.2 7.4 7.6 7.6 7.4 7.6 7.9 8.0 8.9 9.1 8.4 8.9 8.0 7.8 7.7 7.0 7.7 7.0 6.8 6.4 6.1 5.9 5.7 5.7
5.0 5.0 5.1 5.2 5.4 5.4 5.5 5.6 5.7 5.8 5.8 5.8 5.9 6.0 6.1 6.3 6.4 6.7 6.9 6.9 7.0 7.1 7.2 7.5 7.8 7.7 8.0 7.7 7.4 7.9 8.2 8.4 9.1 8.4 8.6 8.1 7.9 8.8 7.3 7.1 6.8 6.4 6.2 5.9 5.8
5.2 5.0 5.0 5.2 5.3 5.4 5.4 5.4 5.6 5.7 5.7 5.8 5.9 6.0 6.2 6.4 6.4 6.6 6.7 6.7 6.6 6.6 6.8 7.3 7.4 7.8 7.8 7.8 8.0 8.1 8.0 8.8 9.2 8.7 8.8 9.1 8.7 8.1 7.9 7.5 7.2 6.9 6.5 6.2 6.1
5.3 5.2 5.1 5.2 5.3 5.3 5.4 5.4 5.4 5.6 5.8 5.6 5.9 6.1 6.0 6.0 6.4 6.6 6.8 6.8 6.6 6.8 7.3 7.8 8.2 7.9 8.2 9.1 9.0 9.2 9.1 9.1 8.3 9.3 8.8 9.3 9.3 9.0 8.1 7.8 7.5 7.3 6.9 6.4 6.3
5.5 5.4 5.2 5.3 5.4 5.4 5.4 5.4 4.9 5.5 5.5 5.8 5.6 5.8 5.9 6.0 6.1 6.4 6.7 6.5 6.8 7.1 7.8 8.8 9.0 8.6 8.7 8.8 9.0 9.3 8.6 8.4 8.9 8.4 8.1 8.8 8.2 9.2 8.9 8.0 7.9 7.6 7.3 6.9 6.5
5.9 5.7 5.5 5.4 5.5 5.4 5.5 5.4 5.5 5.6 5.6 6.1 5.9 5.9 5.9 6.2 6.4 6.5 6.6 6.5 7.0 7.2 8.8 9.2 8.0 8.2 8.7 9.4 9.4 9.1 8.6 8.5 8.1 8.9 8.9 8.9 9.0 9.2 8.9 8.2 7.8 7.9 7.5 7.1 6.8
6.1 6.0 5.9 5.6 5.5 5.5 5.5 5.5 5.6 5.7 6.0 6.6 6.2 6.2 6.3 6.2 6.3 6.9 6.7 6.9 7.1 7.6 8.9 9.3 9.3 9.2 9.4 9.4 9.4 9.1 9.4 9.4 8.8 9.2 8.3 8.6 5.9 8.6 8.8 8.4 8.0 7.9 7.6 7.3 6.9
6.5 6.3 6.2 5.9 5.7 5.6 5.7 5.6 5.8 5.9 7.7 6.7 6.7 6.6 6.6 6.5 7.1 7.0 7.0 7.1 7.5 8.0 8.2 9.4 9.4 9.4 9.4 9.3 9.4 9.5 9.2 9.5 9.0 8.8 8.7 8.9 9.5 8.9 9.3 8.9 8.5 8.1 7.9 7.5 7.0
6.8 6.8 6.6 6.4 6.1 6.0 5.9 5.8 6.0 6.2 8.3 7.2 6.9 6.6 6.8 6.8 7.1 7.3 7.1 7.1 7.6 7.7 8.4 8.6 9.2 9.3 9.4 9.3 9.0 8.8 9.1 9.6 8.4 8.5 8.7 7.6 9.2 7.0 7.7 9.3 8.8 8.2 8.2 7.9 7.4
7.0 7.0 6.9 6.9 6.7 6.5 6.2 6.1 6.4 7.4 8.0 7.8 7.3 7.2 7.2 7.3 7.6 7.4 7.3 7.2 7.4 7.9 8.2 8.5 8.6 9.0 8.9 9.3 9.5 9.2 9.6 9.6 9.8 9.6 7.8 8.3 9.4 9.1 8.6 8.7 8.7 8.6 8.3 8.1 7.7
7.1 7.1 7.1 7.0 7.0 6.8 6.6 6.1 7.2 8.4 9.1 8.0 8.0 7.9 7.8 8.0 7.9 7.8 7.9 7.9 7.7 8.2 9.6 9.6 9.7 9.6 9.5 9.5 9.5 8.9 9.5 9.8 9.6 9.7 8.3 8.8 9.7 9.0 8.6 8.5 8.3 8.3 8.4 8.1 7.8
7.0 7.0 7.0 7.0 7.1 6.8 6.6 6.8 7.8 8.4 8.7 8.3 8.3 8.5 8.4 8.5 8.6 8.2 8.1 8.5 8.6 8.3 9.2 9.7 9.6 9.7 9.6 9.6 9.4 9.5 9.5 9.6 9.6 9.7 9.8 9.6 9.1 8.4 8.4 8.7 8.3 8.3 8.1 8.0 7.9
6.7 6.8 6.9 7.0 7.0 6.8 6.3 7.2 8.2 8.0 7.6 7.9 8.5 8.7 9.4 8.9 8.6 8.6 8.6 8.5 8.6 8.7 8.5 9.2 9.6 9.6 9.6 8.8 9.0 9.4 9.6 9.6 9.6 9.7 9.5 9.5 9.3 8.5 8.3 8.6 8.7 8.5 8.3 8.2 8.1
6.5 6.5 6.9 6.8 6.8 6.6 6.5 7.4 7.7 7.6 7.5 7.9 8.5 9.2 9.0 9.6 8.9 8.9 9.1 9.0 8.6 8.7 8.6 8.6 9.5 9.6 9.3 9.0 9.6 9.5 9.4 9.6 9.6 9.6 9.9 9.1 8.3 8.5 8.3 8.4 8.5 8.4 8.3 8.0 8.1
6.5 6.0 6.3 6.6 6.6 6.2 6.7 7.3 7.8 7.6 7.4 7.7 7.8 8.2 8.7 9.4 9.6 9.1 9.5 9.6 8.6 8.7 8.7 8.6 9.6 9.6 9.7 9.7 9.5 9.5 9.6 9.6 9.6 9.6 9.6 9.3 8.6 8.3 8.0 8.1 8.0 7.7 7.4 7.6 7.8
6.2 6.0 6.3 6.5 6.3 6.9 7.0 7.3 7.6 7.4 7.6 7.7 8.0 8.1 8.3 8.6 8.9 9.1 9.7 9.4 8.4 8.5 8.6 9.3 8.9 9.7 9.7 9.7 9.2 9.0 9.5 9.6 9.7 9.6 10.2 9.8 8.1 7.9 7.3 7.6 7.6 7.2 7.7 8.0 8.0
6.3 6.2 5.9 6.3 6.5 6.7 7.4 7.4 7.5 7.2 7.2 7.5 7.6 7.7 7.9 8.3 8.6 9.0 9.5 9.2 8.5 8.4 8.3 8.4 9.2 9.6 9.7 9.7 9.8 9.6 9.5 9.7 9.6 9.7 9.7 9.7 7.9 7.6 7.6 8.0 8.8 8.5 8.3 8.4 8.4
6.0 6.4 6.2 6.6 6.6 6.8 7.2 7.5 7.6 7.6 7.2 7.3 7.2 7.5 8.0 8.5 9.1 9.2 9.3 9.5 8.4 8.3 8.4 8.3 8.7 9.6 9.6 9.7 9.7 9.6 9.6 9.6 9.6 9.6 9.6 9.4 9.5 8.1 7.5 8.3 8.6 8.6 8.6 8.4 8.6
5.7 5.9 5.8 6.3 6.4 6.9 7.1 7.1 7.4 7.8 7.8 7.5 7.3 7.8 8.5 8.3 8.9 9.5 9.4 9.5 9.2 8.6 8.5 8.8 9.1 9.1 9.5 9.6 9.6 9.6 9.6 9.7 9.6 9.6 9.6 9.6 9.1 8.5 7.8 8.6 8.6 8.6 8.6 8.5 8.4
6.2 6.1 6.1 6.4 6.7 6.8 7.3 7.3 7.3 7.6 7.3 7.3 7.5 7.3 7.8 8.1 8.2 8.6 8.3 8.8 9.4 9.4 8.6 9.1 9.5 9.5 9.5 9.5 9.6 9.6 9.6 9.6 9.6 9.6 9.6 9.6 9.6 8.5 9.0 8.7 8.6 8.6 8.4 8.5 8.5
Wind_Speed
12 11 12 11 11 12 11 11 10 11 11 10 11 9 8 9 13 9 8 5 6 23 14 11 7 6 9 12 9 9 4 6 9 10 11 10 12 9 12 12 8 2 15 20 20
13 12 12 12 12 12 13 13 12 11 11 11 11 11 9 8 11 13 10 16 26 22 12 9 7 5 7 8 4 4 7 4 7 12 15 10 12 9 11 12 8 15 20 19 19
14 13 13 12 13 13 12 12 14 13 13 12 12 10 10 11 11 8 11 21 23 23 11 5 4 12 13 9 1 6 1 6 8 9 13 10 12 9 14 9 13 14 18 19 18
15 14 13 13 13 14 14 12 12 12 13 13 12 11 11 10 2 7 12 20 20 18 8 5 6 16 12 7 2 4 6 5 11 5 9 11 13 7 4 12 12 16 19 18 17
17 16 15 13 13 13 15 14 13 12 12 12 11 10 8 9 5 10 14 17 18 16 11 8 12 12 7 4 1 2 7 10 13 8 10 9 8 10 12 8 13 19 18 17 16
18 18 17 15 14 13 14 16 14 13 12 12 10 8 7 9 7 17 16 17 14 14 8 9 6 7 9 5 6 4 3 10 12 9 7 10 10 9 11 11 13 17 17 16 15
19 19 19 18 15 15 15 15 17 13 12 12 9 6 10 3 2 15 15 15 13 12 6 3 8 11 9 5 1 4 9 9 12 11 10 8 11 6 14 13 14 16 16 15 14
20 20 20 19 17 15 17 17 18 15 11 11 8 9 5 3 3 12 14 13 10 11 11 10 10 12 12 4 11 15 14 7 9 9 9 8 15 14 14 13 14 14 14 14 15
22 21 20 20 19 17 17 19 16 11 7 7 7 10 5 4 11 14 14 12 11 10 11 9 12 14 8 4 6 11 10 20 16 8 10 10 20 14 13 14 14 14 14 14 15
21 21 21 21 19 19 21 13 4 7 7 9 9 7 8 12 13 14 14 10 11 10 11 13 12 12 1 2 6 7 9 14 9 12 11 12 9 8 12 14 14 16 15 14 15
21 21 21 20 20 18 16 4 5 7 13 12 9 9 9 9 9 13 13 13 11 10 15 11 12 4 12 1 8 9 12 9 10 6 6 10 11 15 16 13 15 15 17 16 15
23 22 22 21 20 19 8 8 8 7 9 20 11 9 2 14 11 14 14 12 14 14 16 7 15 16 4 8 11 8 12 6 4 6 7 11 12 8 11 15 14 16 17 18 17
23 23 23 24 24 7 10 10 5 9 8 15 17 16 15 12 13 17 18 18 13 15 16 15 6 7 7 11 10 6 6 2 7 8 13 7 11 18 11 14 14 14 16 17 18
23 22 22 29 6 1 11 11 6 6 7 15 14 13 20 13 19 12 20 17 16 17 16 13 13 6 11 10 9 8 8 6 3 10 3 21 1 33 15 16 16 15 16 17 17
25 21 19 13 11 9 7 3 5 5 6 11 13 5 13 18 12 18 15 20 18 15 10 12 14 10 15 6 7 4 5 6 2 6 11 10 6 4 6 11 15 16 18 18 17
24 21 21 5 6 11 5 5 6 7 7 9 10 13 18 18 19 9 17 20 13 19 15 18 7 8 10 5 7 7 11 11 11 9 6 23 5 9 15 2 18 18 18 16 18
28 24 9 9 1 2 6 8 7 10 6 10 12 17 19 17 21 14 17 18 16 13 15 17 20 14 16 15 14 11 15 13 11 10 5 24 17 9 10 1 5 14 17 15 16
34 26 11 8 5 7 7 9 10 9 11 4 6 15 18 17 19 16 16 18 21 22 15 15 14 24 18 16 18 9 17 13 9 2 8 26 3 6 5 6 6 11 16 16 15
39 5 7 5 13 6 9 12 12 12 3 6 9 11 17 18 11 17 17 15 19 19 18 10 10 2 11 14 18 17 15 15 15 17 9 7 9 13 9 7 13 16 16 15 14
6 6 6 6 12 8 9 17 15 3 8 6 12 13 14 16 16 16 16 14 16 16 15 17 12 6 9 10 13 16 17 11 8 14 13 0 12 6 7 7 11 17 17 16 15
5 5 6 9 8 8 12 18 18 6 6 9 11 8 12 10 15 17 13 10 9 14 13 15 13 9 7 13 18 11 15 15 19 12 4 7 5 9 6 6 10 10 10 8 8
6 7 5 10 9 11 14 21 8 8 10 11 6 12 13 10 9 16 15 9 10 9 13 14 12 11 13 8 5 12 15 16 11 13 11 2 4 8 6 8 9 10 5 3 3
4 3 6 9 8 12 18 21 20 10 15 10 9 6 3 11 8 14 13 11 9 7 6 10 10 12 16 14 9 11 14 15 13 14 7 7 10 10 7 10 10 11 10 8 8
5 5 5 8 13 13 13 17 16 11 17 14 12 13 10 12 8 6 14 9 6 11 5 5 13 15 11 11 5 19 16 11 14 8 10 12 21 16 13 13 12 11 11 11 11
5 3 5 7 12 14 14 12 16 16 12 12 14 18 16 14 15 14 13 10 8 6 5 9 15 17 16 16 8 15 12 16 14 16 16 8 4 18 15 16 14 13 13 13 13
6 4 4 10 4 9 6 13 13 11 12 10 15 17 15 19 17 15 14 15 11 13 13 14 14 10 15 14 12 15 16 17 19 13 17 13 14 16 14 16 15 14 15 15 14
7 6 5 4 10 10 12 13 9 13 5 9 12 9 13 10 13 9 9 13 8 10 13 16 12 13 15 17 16 13 15 17 17 16 12 10 11 17 16 14 14 14 14 15 15
Wind_Direction
2 359 352 347 343 339 337 330 329 328 324 317 313 314 309 301 288 217 253 94 162 167 216 191 198 215 224 256 233 265 267 171 161 126 126 144 117 85 99 134 116 85 136 126 143
3 358 352 345 339 339 332 330 328 328 325 315 311 314 310 307 267 254 143 128 148 171 200 183 197 210 249 245 222 247 272 106 98 129 136 147 125 123 133 120 120 107 105 134 151
2 359 352 346 337 334 329 327 325 324 324 317 311 312 304 296 263 97 165 145 164 181 205 236 226 245 246 219 120 241 156 108 100 117 132 139 124 168 130 175 143 141 139 151 159
1 356 354 347 338 332 325 323 319 318 320 314 311 310 307 256 348 83 167 158 175 195 215 209 269 248 241 112 93 292 73 104 121 160 136 167 124 142 78 69 124 139 151 157 167
359 355 352 347 340 331 323 319 316 313 309 305 304 310 287 231 59 133 154 160 179 219 214 234 258 313 34 108 150 349 100 108 113 145 130 128 164 119 114 116 123 140 158 165 174
356 353 348 347 340 331 322 314 311 307 301 296 293 300 252 250 96 145 162 170 192 215 220 252 336 337 279 338 46 52 142 124 130 120 142 157 128 190 123 137 128 150 166 174 176
354 350 346 342 340 329 320 312 305 298 283 276 277 266 263 358 140 171 172 190 213 229 241 264 317 296 334 228 12 197 155 167 145 169 148 222 164 213 138 155 149 164 174 177 180
350 347 343 338 335 328 318 311 300 291 270 256 247 252 292 126 189 180 188 200 221 236 272 290 304 281 259 279 235 224 225 63 146 173 130 229 308 147 152 170 161 170 174 181 182
347 344 340 335 331 325 315 308 290 283 245 232 236 231 216 148 193 189 199 206 210 225 251 283 275 271 235 254 11 333 267 150 201 197 145 238 190 139 158 173 170 175 173 184 183
346 342 338 334 329 324 313 282 281 279 226 225 267 256 202 211 178 182 202 243 216 223 241 246 246 247 185 150 198 239 247 322 179 177 211 196 246 145 173 188 182 182 178 183 187
344 341 336 332 327 326 319 186 204 201 210 226 197 230 132 114 154 188 193 213 221 231 239 202 258 113 253 165 340 302 306 301 201 123 271 277 275 182 183 211 186 184 178 186 190
341 337 335 328 321 315 273 250 22 353 246 218 236 256 199 179 180 190 185 209 212 230 218 221 238 173 22 297 279 272 77 274 352 23 248 207 227 263 185 193 210 189 178 187 188
341 336 330 326 318 277 242 255 334 316 258 199 208 216 194 212 227 183 197 212 227 231 252 251 71 325 254 288 290 326 106 249 184 207 221 247 281 199 190 193 198 195 182 188 184
338 334 329 324 297 243 229 220 254 295 273 184 201 223 213 200 229 233 193 220 232 248 244 246 255 208 258 263 284 109 336 286 8 293 99 284 25 288 174 199 183 196 178 185 182
334 330 323 322 317 233 46 216 275 251 267 130 159 125 182 206 227 203 191 225 249 233 252 250 231 210 246 222 305 14 320 323 342 262 280 296 235 21 259 180 184 203 181 181 179
328 324 319 216 221 272 290 257 238 233 250 157 155 194 205 200 223 166 203 224 243 254 250 255 292 289 263 289 257 315 275 230 163 202 290 294 108 335 287 165 179 198 187 187 173
323 314 284 306 238 316 224 223 222 244 92 160 176 181 197 192 214 183 199 203 223 222 240 234 248 231 230 254 247 231 256 254 219 204 161 250 266 178 256 196 212 178 179 174 168
321 313 194 248 242 259 225 220 250 226 226 91 186 181 202 189 213 198 209 218 217 240 254 225 222 222 217 221 262 277 280 292 295 244 173 245 100 91 78 109 133 171 163 162 176
314 200 225 198 219 235 223 223 217 251 288 203 189 204 200 210 212 203 218 225 222 216 247 251 250 282 209 214 217 256 253 287 292 285 230 138 91 104 70 81 132 148 151 166 177
304 245 172 148 173 211 227 241 245 310 323 265 241 206 219 204 200 238 207 223 240 228 216 254 279 223 227 226 252 263 279 271 236 272 276 123 122 114 83 111 129 151 160 167 168
248 227 102 167 182 215 223 233 240 176 245 263 251 263 250 234 210 230 215 203 239 217 229 227 246 225 184 211 230 192 233 256 278 280 259 220 69 52 123 159 134 127 128 148 192
281 228 136 171 197 216 227 242 267 256 205 257 270 288 289 251 233 232 215 231 160 246 207 231 254 236 205 209 300 293 295 213 238 241 274 22 156 154 174 139 136 107 107 67 100
257 123 157 213 223 223 224 242 250 228 240 237 242 243 318 281 251 243 225 105 152 226 237 246 227 250 230 211 193 236 242 266 254 260 279 291 134 151 144 131 118 127 124 116 110
273 207 152 210 259 286 233 233 242 211 264 275 269 277 275 255 258 275 236 144 185 240 12 290 262 248 246 235 272 192 231 219 280 256 243 229 141 155 145 130 126 124 115 104 98
237 287 11 200 225 236 258 262 234 238 194 262 248 247 253 252 253 212 255 186 196 157 227 236 252 267 273 289 298 287 215 214 229 272 290 44 140 144 142 134 132 127 122 119 113
316 337 336 288 290 259 219 246 248 242 237 238 231 270 238 240 261 262 235 239 209 180 235 222 256 269 283 273 260 266 266 271 279 231 261 286 111 114 126 120 136 136 134 126 121
357 292 273 236 238 226 241 226 222 259 279 258 297 283 267 266 320 323 304 303 308 200 216 242 249 249 252 260 265 235 252 258 259 267 246 261 271 138 132 145 145 144 142 137 129